| time (UTC) | temp F | wind direction | speed MPH | gust MPH | rain 1hr in | rain 24hr in | rain mn in | humidity % | barometer mb |
| 20260508031034 | 70 | 0 | 0.0 | 0.0 | 0.00 | 0.00 | 0.00 | 84 | 1014.4 |
| 20260508030534 | 70 | 0 | 0.0 | 0.0 | 0.00 | 0.00 | 0.00 | 84 | 1014.4 |
| 20260508030048 | 71 | 0 | 0.0 | 2.0 | 0.00 | 0.00 | 0.00 | 84 | 1014.3 |
| 20260508025532 | 71 | 0 | 0.0 | 2.0 | 0.00 | 0.00 | 0.00 | 83 | 1014.3 |
| 20260508025034 | 72 | 0 | 0.0 | 2.0 | 0.00 | 0.00 | 0.00 | 83 | 1014.4 |
| 20260508024550 | 72 | 0 | 0.0 | 1.0 | 0.00 | 0.00 | 0.00 | 83 | 1014.4 |
| 20260508024034 | 73 | 0 | 0.0 | 3.0 | 0.00 | 0.00 | 0.00 | 82 | 1014.4 |
| 20260508023533 | 73 | 0 | 0.0 | 3.0 | 0.00 | 0.00 | 0.00 | 82 | 1014.4 |
| 20260508023049 | 74 | 280 | 1.0 | 3.0 | 0.00 | 0.00 | 0.00 | 81 | 1014.3 |
| 20260508022534 | 74 | 0 | 0.0 | 2.0 | 0.00 | 0.00 | 0.00 | 81 | 1014.3 |
| 20260508022035 | 75 | 111 | 0.0 | 2.0 | 0.00 | 0.00 | 0.00 | 81 | 1014.2 |
| 20260508021546 | 75 | 0 | 0.0 | 2.0 | 0.00 | 0.00 | 0.00 | 80 | 1014.2 |
| 20260508021034 | 76 | 0 | 0.0 | 2.0 | 0.00 | 0.00 | 0.00 | 78 | 1014.1 |
| 20260508020536 | 76 | 105 | 0.0 | 2.0 | 0.00 | 0.00 | 0.00 | 77 | 1014.1 |
| 20260508020044 | 76 | 105 | 1.0 | 2.0 | 0.00 | 0.00 | 0.00 | 77 | 1014.1 |
| 20260508015534 | 76 | 134 | 1.0 | 3.0 | 0.00 | 0.00 | 0.00 | 77 | 1014.1 |
| 20260508015032 | 76 | 0 | 0.0 | 3.0 | 0.00 | 0.00 | 0.00 | 77 | 1014.2 |
| 20260508014554 | 76 | 138 | 0.0 | 4.0 | 0.00 | 0.00 | 0.00 | 77 | 1014.1 |
| 20260508014038 | 76 | 128 | 1.0 | 4.0 | 0.00 | 0.00 | 0.00 | 78 | 1014.2 |
| 20260508013533 | 75 | 119 | 2.0 | 8.0 | 0.00 | 0.00 | 0.00 | 79 | 1014.1 |
| 20260508013047 | 74 | 114 | 1.0 | 8.0 | 0.00 | 0.00 | 0.00 | 79 | 1014.0 |
| 20260508012536 | 76 | 284 | 6.0 | 8.0 | 0.00 | 0.00 | 0.00 | 77 | 1014.1 |
| 20260508012034 | 77 | 0 | 0.0 | 3.0 | 0.00 | 0.00 | 0.00 | 75 | 1013.8 |
| 20260508011547 | 77 | 0 | 0.0 | 4.0 | 0.00 | 0.00 | 0.00 | 75 | 1013.6 |
| 20260508011033 | 77 | 172 | 0.0 | 4.0 | 0.00 | 0.00 | 0.00 | 76 | 1013.6 |
| 20260508010537 | 77 | 77 | 1.0 | 4.0 | 0.00 | 0.00 | 0.00 | 76 | 1013.6 |
| 20260508010045 | 77 | 0 | 1.0 | 3.0 | 0.00 | 0.00 | 0.00 | 76 | 1013.6 |
| 20260508005535 | 77 | 29 | 1.0 | 4.0 | 0.00 | 0.00 | 0.00 | 76 | 1013.4 |
| 20260508005036 | 77 | 29 | 2.0 | 4.0 | 0.00 | 0.00 | 0.00 | 74 | 1013.4 |
| 20260508004549 | 78 | 29 | 3.0 | 4.0 | 0.00 | 0.00 | 0.00 | 73 | 1013.4 |
| 20260508004035 | 79 | 65 | 0.0 | 3.0 | 0.00 | 0.00 | 0.00 | 71 | 1013.3 |
| 20260508003535 | 80 | 0 | 0.0 | 3.0 | 0.00 | 0.00 | 0.00 | 71 | 1013.3 |
| 20260508003058 | 80 | 168 | 1.0 | 3.0 | 0.00 | 0.00 | 0.00 | 70 | 1013.2 |
| 20260508002534 | 81 | 168 | 1.0 | 3.0 | 0.00 | 0.00 | 0.00 | 69 | 1013.2 |
| 20260508002035 | 81 | 156 | 0.0 | 3.0 | 0.00 | 0.00 | 0.00 | 68 | 1013.0 |
| 20260508001547 | 82 | 155 | 1.0 | 4.0 | 0.00 | 0.00 | 0.00 | 67 | 1013.1 |
| 20260508001034 | 82 | 163 | 1.0 | 4.0 | 0.00 | 0.00 | 0.00 | 65 | 1013.1 |
| 20260508000536 | 83 | 176 | 1.0 | 3.0 | 0.00 | 0.00 | 0.00 | 64 | 1013.1 |
| 20260508000046 | 84 | 0 | 0.0 | 4.0 | 0.00 | 0.00 | 0.00 | 62 | 1013.1 |
| 20260507235537 | 84 | 176 | 1.0 | 4.0 | 0.00 | 0.00 | 0.00 | 61 | 1013.0 |
| 20260507235034 | 85 | 174 | 1.0 | 4.0 | 0.00 | 0.00 | 0.00 | 59 | 1012.9 |
| 20260507234548 | 86 | 173 | 1.0 | 4.0 | 0.00 | 0.00 | 0.00 | 58 | 1012.9 |
| 20260507234034 | 87 | 170 | 2.0 | 4.0 | 0.00 | 0.00 | 0.00 | 55 | 1012.9 |
| 20260507233536 | 89 | 181 | 0.0 | 3.0 | 0.00 | 0.00 | 0.00 | 53 | 1012.9 |
| 20260507233052 | 89 | 0 | 0.0 | 2.0 | 0.00 | 0.00 | 0.00 | 54 | 1012.9 |
| 20260507232533 | 89 | 0 | 0.0 | 3.0 | 0.00 | 0.00 | 0.00 | 54 | 1012.9 |
| 20260507232035 | 89 | 0 | 0.0 | 3.0 | 0.00 | 0.00 | 0.00 | 56 | 1012.8 |
| 20260507231546 | 89 | 227 | 0.0 | 4.0 | 0.00 | 0.00 | 0.00 | 55 | 1012.8 |
| 20260507231034 | 89 | 0 | 1.0 | 4.0 | 0.00 | 0.00 | 0.00 | 55 | 1012.8 |
| 20260507230534 | 89 | 241 | 2.0 | 6.0 | 0.00 | 0.00 | 0.00 | 53 | 1012.8 |
| 20260507230050 | 89 | 230 | 1.0 | 7.0 | 0.00 | 0.00 | 0.00 | 53 | 1012.8 |
| 20260507225536 | 89 | 236 | 3.0 | 7.0 | 0.00 | 0.00 | 0.00 | 51 | 1012.7 |
| 20260507225035 | 90 | 227 | 3.0 | 5.0 | 0.00 | 0.00 | 0.00 | 50 | 1012.6 |
| 20260507224610 | 90 | 248 | 2.0 | 6.0 | 0.00 | 0.00 | 0.00 | 49 | 1012.5 |
| 20260507224034 | 91 | 238 | 2.0 | 7.0 | 0.00 | 0.00 | 0.00 | 50 | 1012.6 |
| 20260507223611 | 91 | 183 | 1.0 | 8.0 | 0.00 | 0.00 | 0.00 | 50 | 1012.5 |
| 20260507223056 | 90 | 211 | 3.0 | 8.0 | 0.00 | 0.00 | 0.00 | 50 | 1012.6 |
| 20260507222534 | 91 | 240 | 3.0 | 8.0 | 0.00 | 0.00 | 0.00 | 50 | 1012.6 |
| 20260507222035 | 91 | 215 | 2.0 | 8.0 | 0.00 | 0.00 | 0.00 | 51 | 1012.5 |
| 20260507221548 | 91 | 234 | 2.0 | 11.0 | 0.00 | 0.00 | 0.00 | 52 | 1012.5 |
| 20260507221034 | 91 | 254 | 3.0 | 11.0 | 0.00 | 0.00 | 0.00 | 51 | 1012.5 |
| 20260507220539 | 91 | 175 | 3.0 | 10.0 | 0.00 | 0.00 | 0.00 | 50 | 1012.6 |
| 20260507220052 | 91 | 206 | 4.0 | 10.0 | 0.00 | 0.00 | 0.00 | 51 | 1012.6 |
| 20260507215535 | 91 | 248 | 2.0 | 8.0 | 0.00 | 0.00 | 0.00 | 51 | 1012.6 |
| 20260507215035 | 91 | 237 | 3.0 | 8.0 | 0.00 | 0.00 | 0.00 | 52 | 1012.7 |
| 20260507214552 | 91 | 275 | 2.0 | 10.0 | 0.00 | 0.00 | 0.00 | 53 | 1012.5 |
| 20260507214035 | 90 | 178 | 3.0 | 10.0 | 0.00 | 0.00 | 0.00 | 53 | 1012.6 |
| 20260507213536 | 90 | 148 | 1.0 | 11.0 | 0.00 | 0.00 | 0.00 | 55 | 1012.6 |
| 20260507213050 | 90 | 170 | 4.0 | 11.0 | 0.00 | 0.00 | 0.00 | 55 | 1012.6 |
| 20260507212534 | 89 | 142 | 4.0 | 10.0 | 0.00 | 0.00 | 0.00 | 55 | 1012.6 |
| 20260507212034 | 89 | 250 | 2.0 | 8.0 | 0.00 | 0.00 | 0.00 | 57 | 1012.7 |
| 20260507211559 | 88 | 226 | 3.0 | 8.0 | 0.00 | 0.00 | 0.00 | 55 | 1012.8 |
| 20260507211035 | 89 | 240 | 4.0 | 8.0 | 0.00 | 0.00 | 0.00 | 55 | 1012.9 |
| 20260507210534 | 90 | 208 | 1.0 | 5.0 | 0.00 | 0.00 | 0.00 | 55 | 1012.9 |
| 20260507210044 | 89 | 167 | 1.0 | 11.0 | 0.00 | 0.00 | 0.00 | 56 | 1012.8 |
| 20260507205535 | 89 | 104 | 4.0 | 12.0 | 0.00 | 0.00 | 0.00 | 55 | 1012.9 |
| 20260507205037 | 89 | 194 | 7.0 | 12.0 | 0.00 | 0.00 | 0.00 | 56 | 1012.9 |
| 20260507204544 | 89 | 284 | 4.0 | 10.0 | 0.00 | 0.00 | 0.00 | 53 | 1013.0 |
| 20260507204038 | 89 | 291 | 4.0 | 10.0 | 0.00 | 0.00 | 0.00 | 59 | 1012.9 |
| 20260507203532 | 88 | 0 | 2.0 | 8.0 | 0.00 | 0.00 | 0.00 | 57 | 1013.0 |
| 20260507203047 | 88 | 173 | 1.0 | 9.0 | 0.00 | 0.00 | 0.00 | 56 | 1013.0 |
| 20260507202534 | 89 | 146 | 2.0 | 10.0 | 0.00 | 0.00 | 0.00 | 55 | 1013.0 |
| 20260507202034 | 88 | 147 | 4.0 | 10.0 | 0.00 | 0.00 | 0.00 | 55 | 1013.0 |
| 20260507201542 | 88 | 107 | 3.0 | 11.0 | 0.00 | 0.00 | 0.00 | 55 | 1013.0 |
| 20260507201038 | 89 | 147 | 4.0 | 11.0 | 0.00 | 0.00 | 0.00 | 55 | 1013.2 |
| 20260507200535 | 89 | 130 | 7.0 | 11.0 | 0.00 | 0.00 | 0.00 | 54 | 1013.0 |
| 20260507200054 | 90 | 157 | 5.0 | 10.0 | 0.00 | 0.00 | 0.00 | 57 | 1013.2 |
| 20260507195534 | 90 | 153 | 2.0 | 10.0 | 0.00 | 0.00 | 0.00 | 55 | 1013.3 |
| 20260507195034 | 90 | 143 | 4.0 | 9.0 | 0.00 | 0.00 | 0.00 | 56 | 1013.4 |
| 20260507194543 | 90 | 123 | 1.0 | 12.0 | 0.00 | 0.00 | 0.00 | 56 | 1013.6 |
| 20260507194037 | 90 | 163 | 4.0 | 13.0 | 0.00 | 0.00 | 0.00 | 57 | 1013.7 |
| 20260507193535 | 90 | 176 | 5.0 | 13.0 | 0.00 | 0.00 | 0.00 | 56 | 1013.8 |
| 20260507193049 | 89 | 175 | 4.0 | 13.0 | 0.00 | 0.00 | 0.00 | 57 | 1013.8 |
| 20260507192534 | 89 | 156 | 6.0 | 13.0 | 0.00 | 0.00 | 0.00 | 56 | 1013.9 |
| 20260507192032 | 89 | 148 | 2.0 | 8.0 | 0.00 | 0.00 | 0.00 | 58 | 1014.0 |
| 20260507191550 | 89 | 28 | 2.0 | 8.0 | 0.00 | 0.00 | 0.00 | 57 | 1014.1 |
| 20260507191035 | 89 | 136 | 3.0 | 8.0 | 0.00 | 0.00 | 0.00 | 56 | 1014.3 |
| 20260507190532 | 89 | 259 | 3.0 | 11.0 | 0.00 | 0.00 | 0.00 | 60 | 1014.3 |
| 20260507190044 | 88 | 159 | 6.0 | 11.0 | 0.00 | 0.00 | 0.00 | 58 | 1014.5 |
| 20260507185534 | 88 | 150 | 4.0 | 9.0 | 0.00 | 0.00 | 0.00 | 60 | 1014.6 |
| 20260507185034 | 88 | 150 | 2.0 | 9.0 | 0.00 | 0.00 | 0.00 | 60 | 1014.5 |
| 20260507184550 | 88 | 154 | 4.0 | 11.0 | 0.00 | 0.00 | 0.00 | 59 | 1014.7 |
| 20260507184035 | 88 | 144 | 5.0 | 11.0 | 0.00 | 0.00 | 0.00 | 59 | 1014.9 |
| 20260507183534 | 89 | 180 | 5.0 | 17.0 | 0.00 | 0.00 | 0.00 | 59 | 1014.9 |
| 20260507183052 | 89 | 177 | 5.0 | 17.0 | 0.00 | 0.00 | 0.00 | 59 | 1015.1 |
| 20260507182534 | 88 | 177 | 4.0 | 15.0 | 0.00 | 0.00 | 0.00 | 60 | 1015.1 |
| 20260507182035 | 89 | 279 | 5.0 | 14.0 | 0.00 | 0.00 | 0.00 | 58 | 1015.1 |
| 20260507181544 | 89 | 274 | 3.0 | 10.0 | 0.00 | 0.00 | 0.00 | 57 | 1015.2 |
| 20260507181034 | 89 | 140 | 2.0 | 9.0 | 0.00 | 0.00 | 0.00 | 57 | 1015.3 |
| 20260507180534 | 88 | 160 | 3.0 | 9.0 | 0.00 | 0.00 | 0.00 | 62 | 1015.3 |
| 20260507180048 | 88 | 0 | 4.0 | 9.0 | 0.00 | 0.00 | 0.00 | 58 | 1015.3 |
| 20260507175534 | 89 | 172 | 3.0 | 12.0 | 0.00 | 0.00 | 0.00 | 60 | 1015.3 |
| 20260507175035 | 89 | 241 | 4.0 | 12.0 | 0.00 | 0.00 | 0.00 | 60 | 1015.4 |
| 20260507174552 | 89 | 265 | 2.0 | 11.0 | 0.00 | 0.00 | 0.00 | 61 | 1015.3 |
| 20260507174034 | 88 | 165 | 3.0 | 11.0 | 0.00 | 0.00 | 0.00 | 60 | 1015.3 |
| 20260507173534 | 88 | 238 | 3.0 | 14.0 | 0.00 | 0.00 | 0.00 | 62 | 1015.4 |
| 20260507173056 | 88 | 105 | 4.0 | 14.0 | 0.00 | 0.00 | 0.00 | 60 | 1015.4 |
| 20260507172535 | 88 | 157 | 4.0 | 12.0 | 0.00 | 0.00 | 0.00 | 62 | 1015.4 |
| 20260507172035 | 87 | 141 | 5.0 | 12.0 | 0.00 | 0.00 | 0.00 | 61 | 1015.4 |
| 20260507171555 | 87 | 175 | 8.0 | 12.0 | 0.00 | 0.00 | 0.00 | 61 | 1015.4 |
| 20260507171034 | 88 | 181 | 2.0 | 11.0 | 0.00 | 0.00 | 0.00 | 62 | 1015.5 |
| 20260507170531 | 87 | 223 | 4.0 | 12.0 | 0.00 | 0.00 | 0.00 | 63 | 1015.6 |
| 20260507170049 | 87 | 127 | 4.0 | 12.0 | 0.00 | 0.00 | 0.00 | 63 | 1015.6 |
| 20260507165534 | 86 | 187 | 6.0 | 14.0 | 0.00 | 0.00 | 0.00 | 64 | 1015.6 |
| 20260507165037 | 86 | 123 | 9.0 | 16.0 | 0.00 | 0.00 | 0.00 | 64 | 1015.6 |
| 20260507164549 | 86 | 153 | 6.0 | 16.0 | 0.00 | 0.00 | 0.00 | 65 | 1015.7 |
| 20260507164034 | 86 | 144 | 5.0 | 14.0 | 0.00 | 0.00 | 0.00 | 66 | 1015.8 |
| 20260507163533 | 86 | 206 | 4.0 | 14.0 | 0.00 | 0.00 | 0.00 | 66 | 1015.8 |
| 20260507163046 | 86 | 169 | 6.0 | 12.0 | 0.00 | 0.00 | 0.00 | 68 | 1015.8 |
| 20260507162535 | 85 | 148 | 6.0 | 14.0 | 0.00 | 0.00 | 0.00 | 68 | 1016.0 |
| 20260507162037 | 85 | 125 | 9.0 | 14.0 | 0.00 | 0.00 | 0.00 | 67 | 1016.0 |
| 20260507161552 | 85 | 176 | 4.0 | 12.0 | 0.00 | 0.00 | 0.00 | 70 | 1016.0 |
| 20260507161034 | 85 | 150 | 6.0 | 14.0 | 0.00 | 0.00 | 0.00 | 68 | 1016.1 |
| 20260507160535 | 84 | 197 | 5.0 | 15.0 | 0.00 | 0.00 | 0.00 | 70 | 1016.1 |
| 20260507160048 | 84 | 207 | 7.0 | 15.0 | 0.00 | 0.00 | 0.00 | 69 | 1016.1 |
| 20260507155534 | 84 | 142 | 8.0 | 13.0 | 0.00 | 0.00 | 0.00 | 70 | 1016.2 |
| 20260507155034 | 84 | 154 | 6.0 | 14.0 | 0.00 | 0.00 | 0.00 | 70 | 1016.2 |
| 20260507154550 | 84 | 175 | 7.0 | 14.0 | 0.00 | 0.00 | 0.00 | 71 | 1016.2 |
| 20260507154034 | 84 | 135 | 7.0 | 14.0 | 0.00 | 0.00 | 0.00 | 70 | 1016.3 |
| 20260507153534 | 84 | 153 | 2.0 | 13.0 | 0.00 | 0.00 | 0.00 | 71 | 1016.3 |
| 20260507153058 | 83 | 170 | 3.0 | 13.0 | 0.00 | 0.00 | 0.00 | 72 | 1016.5 |
| 20260507152534 | 83 | 167 | 6.0 | 13.0 | 0.00 | 0.00 | 0.00 | 71 | 1016.5 |
| 20260507152035 | 82 | 145 | 6.0 | 13.0 | 0.00 | 0.00 | 0.00 | 71 | 1016.6 |
| 20260507151547 | 82 | 158 | 8.0 | 12.0 | 0.00 | 0.00 | 0.00 | 72 | 1016.5 |
| 20260507151034 | 82 | 171 | 5.0 | 12.0 | 0.00 | 0.00 | 0.00 | 72 | 1016.6 |
| 20260507150534 | 82 | 196 | 4.0 | 16.0 | 0.00 | 0.00 | 0.00 | 73 | 1016.5 |
| 20260507150049 | 82 | 148 | 8.0 | 16.0 | 0.00 | 0.00 | 0.00 | 71 | 1016.6 |
| 20260507145535 | 82 | 182 | 2.0 | 13.0 | 0.00 | 0.00 | 0.00 | 74 | 1016.6 |
| 20260507145034 | 81 | 258 | 6.0 | 13.0 | 0.00 | 0.00 | 0.00 | 73 | 1016.7 |
| 20260507144545 | 81 | 151 | 4.0 | 11.0 | 0.00 | 0.00 | 0.00 | 74 | 1016.7 |
| 20260507144036 | 81 | 196 | 6.0 | 11.0 | 0.00 | 0.00 | 0.00 | 74 | 1016.7 |
| 20260507143534 | 81 | 139 | 5.0 | 11.0 | 0.00 | 0.00 | 0.00 | 74 | 1016.7 |
| 20260507143043 | 81 | 190 | 4.0 | 11.0 | 0.00 | 0.00 | 0.00 | 75 | 1016.8 |
| 20260507142534 | 80 | 153 | 6.0 | 11.0 | 0.00 | 0.00 | 0.00 | 75 | 1016.8 |
| 20260507142034 | 80 | 184 | 6.0 | 12.0 | 0.00 | 0.00 | 0.00 | 75 | 1016.8 |
| 20260507141550 | 80 | 167 | 7.0 | 12.0 | 0.00 | 0.00 | 0.00 | 74 | 1016.7 |
| 20260507141034 | 80 | 211 | 3.0 | 12.0 | 0.00 | 0.00 | 0.00 | 75 | 1016.7 |
| 20260507140534 | 80 | 167 | 2.0 | 11.0 | 0.00 | 0.00 | 0.00 | 75 | 1016.6 |
| 20260507140101 | 80 | 112 | 3.0 | 11.0 | 0.00 | 0.00 | 0.00 | 76 | 1016.7 |
| 20260507135537 | 79 | 215 | 3.0 | 13.0 | 0.00 | 0.00 | 0.00 | 76 | 1016.8 |
| 20260507135034 | 78 | 158 | 5.0 | 13.0 | 0.00 | 0.00 | 0.00 | 76 | 1016.8 |
| 20260507134546 | 78 | 157 | 6.0 | 12.0 | 0.00 | 0.00 | 0.00 | 77 | 1016.9 |
| 20260507134033 | 78 | 171 | 7.0 | 12.0 | 0.00 | 0.00 | 0.00 | 77 | 1017.0 |
| 20260507133534 | 78 | 185 | 6.0 | 13.0 | 0.00 | 0.00 | 0.00 | 78 | 1016.9 |
| 20260507133052 | 77 | 173 | 6.0 | 13.0 | 0.00 | 0.00 | 0.00 | 79 | 1016.8 |
| 20260507132533 | 77 | 142 | 7.0 | 11.0 | 0.00 | 0.00 | 0.00 | 79 | 1016.8 |
| 20260507132034 | 77 | 175 | 7.0 | 11.0 | 0.00 | 0.00 | 0.00 | 81 | 1016.7 |
| 20260507131546 | 76 | 138 | 4.0 | 11.0 | 0.00 | 0.00 | 0.00 | 82 | 1016.7 |
| 20260507131037 | 76 | 127 | 5.0 | 10.0 | 0.00 | 0.00 | 0.00 | 83 | 1016.7 |
| 20260507130534 | 75 | 156 | 6.0 | 10.0 | 0.00 | 0.00 | 0.00 | 83 | 1016.6 |
| 20260507130045 | 75 | 174 | 3.0 | 9.0 | 0.00 | 0.00 | 0.00 | 84 | 1016.5 |
| 20260507125534 | 74 | 157 | 3.0 | 9.0 | 0.00 | 0.00 | 0.00 | 86 | 1016.6 |
| 20260507125034 | 74 | 136 | 4.0 | 9.0 | 0.00 | 0.00 | 0.00 | 87 | 1016.6 |
| 20260507124543 | 73 | 149 | 5.0 | 9.0 | 0.00 | 0.00 | 0.00 | 88 | 1016.6 |
| 20260507124034 | 72 | 150 | 5.0 | 9.0 | 0.00 | 0.00 | 0.00 | 90 | 1016.7 |
| 20260507123533 | 71 | 164 | 2.0 | 5.0 | 0.00 | 0.00 | 0.00 | 93 | 1016.7 |
| 20260507123046 | 70 | 159 | 2.0 | 5.0 | 0.00 | 0.00 | 0.00 | 94 | 1016.6 |
| 20260507122534 | 70 | 100 | 2.0 | 4.0 | 0.00 | 0.00 | 0.00 | 94 | 1016.7 |
| 20260507122034 | 69 | 132 | 1.0 | 4.0 | 0.00 | 0.00 | 0.00 | 94 | 1016.7 |
| 20260507121545 | 68 | 138 | 1.0 | 3.0 | 0.00 | 0.00 | 0.00 | 94 | 1016.7 |
| 20260507121034 | 67 | 142 | 1.0 | 5.0 | 0.00 | 0.00 | 0.00 | 94 | 1016.6 |
| 20260507120534 | 67 | 140 | 3.0 | 5.0 | 0.00 | 0.00 | 0.00 | 94 | 1016.6 |
| 20260507120046 | 67 | 163 | 2.0 | 3.0 | 0.00 | 0.00 | 0.00 | 95 | 1016.6 |
| 20260507115535 | 66 | 145 | 1.0 | 3.0 | 0.00 | 0.00 | 0.00 | 94 | 1016.6 |
| 20260507115035 | 65 | 0 | 0.0 | 0.0 | 0.00 | 0.00 | 0.00 | 95 | 1016.8 |
| 20260507114542 | 65 | 0 | 0.0 | 0.0 | 0.00 | 0.00 | 0.00 | 95 | 1016.7 |
| 20260507114039 | 64 | 0 | 0.0 | 0.0 | 0.00 | 0.00 | 0.00 | 94 | 1016.7 |
| 20260507113535 | 63 | 0 | 0.0 | 0.0 | 0.00 | 0.00 | 0.00 | 94 | 1016.6 |
| 20260507113044 | 62 | 0 | 0.0 | 0.0 | 0.00 | 0.00 | 0.00 | 94 | 1016.5 |
| 20260507112538 | 62 | 0 | 0.0 | 0.0 | 0.00 | 0.00 | 0.00 | 94 | 1016.5 |
| 20260507112041 | 61 | 0 | 0.0 | 0.0 | 0.00 | 0.00 | 0.00 | 94 | 1016.5 |
| 20260507111548 | 61 | 0 | 0.0 | 0.0 | 0.00 | 0.00 | 0.00 | 94 | 1016.5 |
| 20260507111034 | 61 | 0 | 0.0 | 0.0 | 0.00 | 0.00 | 0.00 | 93 | 1016.5 |
| 20260507110533 | 61 | 0 | 0.0 | 0.0 | 0.00 | 0.00 | 0.00 | 93 | 1016.4 |
| 20260507110051 | 61 | 0 | 0.0 | 0.0 | 0.00 | 0.00 | 0.00 | 93 | 1016.4 |
| 20260507105534 | 61 | 0 | 0.0 | 0.0 | 0.00 | 0.00 | 0.00 | 94 | 1016.4 |
| 20260507105034 | 61 | 0 | 0.0 | 0.0 | 0.00 | 0.00 | 0.00 | 93 | 1016.3 |
| 20260507104546 | 60 | 0 | 0.0 | 0.0 | 0.00 | 0.00 | 0.00 | 94 | 1016.1 |
| 20260507104033 | 60 | 0 | 0.0 | 0.0 | 0.00 | 0.00 | 0.00 | 93 | 1016.0 |
| 20260507103536 | 60 | 0 | 0.0 | 0.0 | 0.00 | 0.00 | 0.00 | 93 | 1015.9 |
| 20260507103047 | 60 | 0 | 0.0 | 0.0 | 0.00 | 0.00 | 0.00 | 93 | 1015.9 |
| 20260507102534 | 60 | 0 | 0.0 | 0.0 | 0.00 | 0.00 | 0.00 | 93 | 1015.9 |
| 20260507102037 | 61 | 0 | 0.0 | 0.0 | 0.00 | 0.00 | 0.00 | 93 | 1015.8 |
| 20260507101558 | 61 | 0 | 0.0 | 0.0 | 0.00 | 0.00 | 0.00 | 93 | 1015.8 |
| 20260507101035 | 61 | 0 | 0.0 | 2.0 | 0.00 | 0.00 | 0.00 | 93 | 1015.7 |
| 20260507100534 | 61 | 0 | 0.0 | 2.0 | 0.00 | 0.00 | 0.00 | 93 | 1015.6 |
| 20260507100045 | 61 | 62 | 1.0 | 2.0 | 0.00 | 0.00 | 0.00 | 93 | 1015.5 |
| 20260507095534 | 61 | 62 | 0.0 | 2.0 | 0.00 | 0.00 | 0.00 | 93 | 1015.5 |
| 20260507095033 | 61 | 62 | 1.0 | 2.0 | 0.00 | 0.00 | 0.00 | 93 | 1015.5 |
| 20260507094556 | 61 | 281 | 0.0 | 1.0 | 0.00 | 0.00 | 0.00 | 93 | 1015.5 |
| 20260507094036 | 61 | 0 | 0.0 | 0.0 | 0.00 | 0.00 | 0.00 | 93 | 1015.5 |
| 20260507093535 | 61 | 0 | 0.0 | 0.0 | 0.00 | 0.00 | 0.00 | 93 | 1015.4 |
| 20260507093046 | 61 | 0 | 0.0 | 0.0 | 0.00 | 0.00 | 0.00 | 93 | 1015.4 |
| 20260507092534 | 61 | 0 | 0.0 | 0.0 | 0.00 | 0.00 | 0.00 | 92 | 1015.5 |
| 20260507092033 | 61 | 0 | 0.0 | 0.0 | 0.00 | 0.00 | 0.00 | 92 | 1015.4 |
| 20260507091558 | 61 | 0 | 0.0 | 0.0 | 0.00 | 0.00 | 0.00 | 92 | 1015.4 |
| 20260507091034 | 61 | 0 | 0.0 | 0.0 | 0.00 | 0.00 | 0.00 | 92 | 1015.2 |
| 20260507090534 | 62 | 0 | 0.0 | 0.0 | 0.00 | 0.00 | 0.00 | 92 | 1015.2 |
| 20260507090105 | 62 | 0 | 0.0 | 0.0 | 0.00 | 0.00 | 0.00 | 92 | 1015.1 |
| 20260507085534 | 62 | 0 | 0.0 | 0.0 | 0.00 | 0.00 | 0.00 | 92 | 1014.9 |
| 20260507085035 | 62 | 0 | 0.0 | 0.0 | 0.00 | 0.00 | 0.00 | 92 | 1015.0 |
| 20260507084545 | 62 | 0 | 0.0 | 0.0 | 0.00 | 0.00 | 0.00 | 92 | 1015.0 |
| 20260507084034 | 62 | 0 | 0.0 | 0.0 | 0.00 | 0.00 | 0.00 | 92 | 1015.0 |
| 20260507083537 | 62 | 0 | 0.0 | 0.0 | 0.00 | 0.00 | 0.00 | 92 | 1015.0 |
| 20260507083047 | 62 | 0 | 0.0 | 1.0 | 0.00 | 0.00 | 0.00 | 92 | 1015.0 |
| 20260507082537 | 62 | 0 | 0.0 | 2.0 | 0.00 | 0.00 | 0.00 | 92 | 1015.0 |
| 20260507082035 | 62 | 0 | 0.0 | 2.0 | 0.00 | 0.00 | 0.00 | 92 | 1015.0 |
| 20260507081554 | 62 | 281 | 0.0 | 3.0 | 0.00 | 0.00 | 0.00 | 92 | 1014.9 |
| 20260507081034 | 63 | 281 | 1.0 | 3.0 | 0.00 | 0.00 | 0.00 | 92 | 1014.9 |
| 20260507080534 | 62 | 281 | 2.0 | 4.0 | 0.00 | 0.00 | 0.00 | 92 | 1015.0 |
| 20260507080055 | 62 | 281 | 2.0 | 4.0 | 0.00 | 0.00 | 0.00 | 91 | 1014.9 |
| 20260507075536 | 63 | 261 | 2.0 | 4.0 | 0.00 | 0.00 | 0.00 | 92 | 1014.9 |
| 20260507075034 | 63 | 256 | 0.0 | 2.0 | 0.00 | 0.00 | 0.00 | 92 | 1014.7 |
| 20260507074547 | 63 | 0 | 0.0 | 1.0 | 0.00 | 0.00 | 0.00 | 91 | 1014.6 |
| 20260507074034 | 64 | 0 | 0.0 | 1.0 | 0.00 | 0.00 | 0.00 | 92 | 1014.7 |
| 20260507073534 | 65 | 0 | 0.0 | 4.0 | 0.00 | 0.00 | 0.00 | 92 | 1014.6 |
| 20260507073058 | 65 | 0 | 0.0 | 4.0 | 0.00 | 0.00 | 0.00 | 92 | 1014.7 |
| 20260507072534 | 65 | 63 | 2.0 | 4.0 | 0.00 | 0.00 | 0.00 | 92 | 1014.6 |
| 20260507072034 | 65 | 80 | 2.0 | 4.0 | 0.00 | 0.00 | 0.00 | 92 | 1014.7 |
| 20260507071546 | 65 | 109 | 0.0 | 2.0 | 0.00 | 0.00 | 0.00 | 92 | 1014.9 |
| 20260507071034 | 65 | 0 | 0.0 | 3.0 | 0.00 | 0.00 | 0.00 | 92 | 1015.0 |
| 20260507070534 | 65 | 0 | 0.0 | 3.0 | 0.00 | 0.00 | 0.00 | 93 | 1015.2 |
| 20260507070121 | 64 | 109 | 1.0 | 3.0 | 0.00 | 0.00 | 0.00 | 92 | 1015.2 |
| 20260507065534 | 64 | 97 | 2.0 | 3.0 | 0.00 | 0.00 | 0.00 | 92 | 1015.2 |
| 20260507065036 | 63 | 76 | 1.0 | 3.0 | 0.00 | 0.00 | 0.00 | 92 | 1015.4 |
| 20260507064549 | 63 | 69 | 0.0 | 3.0 | 0.00 | 0.00 | 0.00 | 91 | 1015.5 |
| 20260507064035 | 63 | 0 | 0.0 | 0.0 | 0.00 | 0.00 | 0.00 | 91 | 1015.5 |
| 20260507063534 | 63 | 0 | 0.0 | 0.0 | 0.00 | 0.00 | 0.00 | 91 | 1015.7 |
| 20260507063049 | 63 | 0 | 0.0 | 0.0 | 0.00 | 0.00 | 0.00 | 91 | 1015.6 |
| 20260507062531 | 63 | 0 | 0.0 | 0.0 | 0.00 | 0.00 | 0.00 | 91 | 1015.7 |
| 20260507062034 | 63 | 0 | 0.0 | 0.0 | 0.00 | 0.00 | 0.00 | 91 | 1015.8 |
| 20260507061542 | 63 | 0 | 0.0 | 0.0 | 0.00 | 0.00 | 0.00 | 91 | 1015.7 |
| 20260507061034 | 63 | 0 | 0.0 | 0.0 | 0.00 | 0.00 | 0.00 | 90 | 1015.6 |
| 20260507060536 | 63 | 0 | 0.0 | 0.0 | 0.00 | 0.00 | 0.00 | 90 | 1015.7 |
| 20260507060047 | 63 | 0 | 0.0 | 0.0 | 0.00 | 0.00 | 0.00 | 90 | 1015.9 |
| 20260507055535 | 63 | 0 | 0.0 | 0.0 | 0.00 | 0.00 | 0.00 | 90 | 1016.1 |
| 20260507055034 | 63 | 0 | 0.0 | 0.0 | 0.00 | 0.00 | 0.00 | 89 | 1016.2 |
| 20260507054553 | 64 | 0 | 0.0 | 0.0 | 0.00 | 0.00 | 0.00 | 90 | 1016.2 |
| 20260507054035 | 64 | 0 | 0.0 | 0.0 | 0.00 | 0.00 | 0.00 | 90 | 1016.3 |
| 20260507053535 | 64 | 0 | 0.0 | 0.0 | 0.00 | 0.00 | 0.00 | 90 | 1016.4 |
| 20260507053053 | 64 | 0 | 0.0 | 0.0 | 0.00 | 0.00 | 0.00 | 89 | 1016.5 |
| 20260507052533 | 64 | 0 | 0.0 | 0.0 | 0.00 | 0.00 | 0.00 | 89 | 1016.6 |
| 20260507052035 | 64 | 0 | 0.0 | 0.0 | 0.00 | 0.00 | 0.00 | 89 | 1016.6 |
| 20260507051545 | 64 | 0 | 0.0 | 0.0 | 0.00 | 0.00 | 0.00 | 89 | 1016.6 |
| 20260507051034 | 65 | 0 | 0.0 | 0.0 | 0.00 | 0.00 | 0.00 | 89 | 1016.5 |
| 20260507050534 | 65 | 0 | 0.0 | 0.0 | 0.00 | 0.00 | 0.00 | 89 | 1016.5 |
| 20260507050050 | 65 | 0 | 0.0 | 1.0 | 0.00 | 0.00 | 0.00 | 89 | 1016.6 |
| 20260507045533 | 65 | 0 | 0.0 | 2.0 | 0.00 | 0.00 | 0.00 | 89 | 1016.4 |
| 20260507045039 | 65 | 71 | 0.0 | 2.0 | 0.00 | 0.00 | 0.00 | 89 | 1016.5 |
| 20260507044549 | 65 | 71 | 1.0 | 2.0 | 0.00 | 0.00 | 0.00 | 88 | 1016.5 |
| 20260507044035 | 65 | 71 | 1.0 | 2.0 | 0.00 | 0.00 | 0.00 | 88 | 1016.6 |
| 20260507043534 | 65 | 71 | 0.0 | 1.0 | 0.00 | 0.00 | 0.00 | 88 | 1016.7 |
| 20260507043051 | 65 | 0 | 0.0 | 2.0 | 0.00 | 0.00 | 0.00 | 87 | 1016.7 |
| 20260507042534 | 66 | 0 | 0.0 | 2.0 | 0.00 | 0.00 | 0.00 | 87 | 1016.8 |
| 20260507042035 | 66 | 71 | 1.0 | 2.0 | 0.00 | 0.00 | 0.00 | 87 | 1016.7 |
| 20260507041547 | 66 | 71 | 1.0 | 2.0 | 0.00 | 0.00 | 0.00 | 86 | 1016.6 |
| 20260507041035 | 66 | 71 | 0.0 | 2.0 | 0.00 | 0.00 | 0.00 | 86 | 1016.6 |
| 20260507040533 | 67 | 0 | 0.0 | 2.0 | 0.00 | 0.00 | 0.00 | 86 | 1016.7 |
| 20260507040050 | 67 | 71 | 0.0 | 1.0 | 0.00 | 0.00 | 0.00 | 86 | 1016.5 |
| 20260507035534 | 67 | 0 | 0.0 | 0.0 | 0.00 | 0.00 | 0.00 | 86 | 1016.3 |
| 20260507035033 | 67 | 0 | 0.0 | 0.0 | 0.00 | 0.00 | 0.00 | 85 | 1016.3 |
| 20260507034546 | 67 | 0 | 0.0 | 0.0 | 0.00 | 0.00 | 0.00 | 85 | 1016.3 |
| 20260507034034 | 68 | 0 | 0.0 | 0.0 | 0.00 | 0.00 | 0.00 | 84 | 1016.3 |
| 20260507033537 | 68 | 0 | 0.0 | 2.0 | 0.00 | 0.00 | 0.00 | 84 | 1016.3 |
| 20260507033051 | 68 | 0 | 0.0 | 2.0 | 0.00 | 0.00 | 0.00 | 84 | 1016.3 |
| 20260507032535 | 68 | 0 | 0.0 | 2.0 | 0.00 | 0.00 | 0.00 | 84 | 1016.3 |
| 20260507032034 | 68 | 71 | 0.0 | 2.0 | 0.00 | 0.00 | 0.00 | 84 | 1016.1 |
| 20260507031549 | 68 | 0 | 0.0 | 3.0 | 0.00 | 0.00 | 0.00 | 84 | 1016.2 |